Tracking 20041 objects as of 22-Nov-2019
Live streaming from Space Station
objects crossing your sky now

DELTA 1 R/B

Track DELTA 1 R/B now!
10-day predictions


NORAD ID: 10704
Int'l Code: 1978-026C
Perigee: 890.4 km
Apogee: 996.3 km
Inclination: 99.0 °
Period: 103.8 minutes
Semi major axis: 7314 km
RCS: 5.2616 m2 (large)
Launch date: March 5, 1978
Source: United States (US)
Launch site: AIR FORCE WESTERN TEST RANGE (AFWTR)

Note: This is a ROCKET BODY
aabbcc
Your satellite tracking list
Your tracking list is empty




NASA's NSSDC Master Catalog

Two Line Element Set (TLE):
1 10704U 78026C   19326.43733561 -.00000029  00000-0  11419-4 0  9990
2 10704  99.0210 242.0495 0072415 323.3325  36.2889 13.87839395153484
Source of the keplerian elements: AFSPC